ADR195 LYBE-LJLJ

Flight info

Callsign ADR195
Flight time 0h 42m
Altitude 28000
Route TUVAR DCT MAGAM MAGAM2L
Aircraft A320/M-SDE3FGHIRWY/LB1

Departure

Time 2026-05-01 14:06
Airport Belgrade Nikola Tesla Airport (LYBE)

Arrival

Time 2026-05-01 14:49
Airport Ljubljana Jože Pučnik Airport (LJLJ)
Time Latitude Longitude Altitude Speed Heading
2026-05-01 13:21 44.81934 20.29279 307 ft 0 kts 302°
2026-05-01 13:57 44.81929 20.29290 309 ft 4 kts 304°
2026-05-01 13:57 44.81912 20.29319 309 ft 4 kts 319°
2026-05-01 13:57 44.81891 20.29336 305 ft 4 kts
2026-05-01 13:58 44.81879 20.29333 306 ft 0 kts 32°
2026-05-01 14:00 44.81884 20.29338 307 ft 4 kts 32°
2026-05-01 14:00 44.81930 20.29378 307 ft 10 kts 32°
2026-05-01 14:01 44.81997 20.29437 307 ft 13 kts 32°
2026-05-01 14:01 44.82079 20.29509 307 ft 15 kts 32°
2026-05-01 14:01 44.82097 20.29632 308 ft 16 kts 121°
2026-05-01 14:01 44.82031 20.29780 308 ft 19 kts 122°
2026-05-01 14:02 44.81955 20.29952 306 ft 22 kts 122°
2026-05-01 14:02 44.81869 20.30146 306 ft 24 kts 122°
2026-05-01 14:02 44.81776 20.30358 307 ft 26 kts 122°
2026-05-01 14:02 44.81674 20.30583 310 ft 28 kts 122°
2026-05-01 14:03 44.81580 20.30795 307 ft 24 kts 122°
2026-05-01 14:03 44.81486 20.31008 306 ft 27 kts 122°
2026-05-01 14:03 44.81383 20.31242 306 ft 29 kts 122°
2026-05-01 14:03 44.81273 20.31490 306 ft 31 kts 122°
2026-05-01 14:04 44.81161 20.31741 306 ft 29 kts 122°
2026-05-01 14:04 44.81057 20.31980 309 ft 30 kts 122°
2026-05-01 14:04 44.80995 20.32210 305 ft 23 kts 66°
2026-05-01 14:04 44.81123 20.32305 306 ft 20 kts 360°
2026-05-01 14:05 44.81243 20.32261 308 ft 14 kts 316°
2026-05-01 14:05 44.81285 20.32173 309 ft 12 kts 302°
2026-05-01 14:05 44.81353 20.32019 308 ft 31 kts 302°
2026-05-01 14:05 44.81600 20.31465 307 ft 100 kts 302°
2026-05-01 14:06 44.82065 20.30418 308 ft 150 kts 302°
2026-05-01 14:06 44.82637 20.29079 728 ft 162 kts 302°
2026-05-01 14:06 44.83220 20.27743 1509 ft 160 kts 306°
2026-05-01 14:06 44.83811 20.26417 2183 ft 162 kts 306°
2026-05-01 14:07 44.84448 20.24998 2522 ft 183 kts 305°
2026-05-01 14:07 44.85169 20.23391 2800 ft 205 kts 305°
2026-05-01 14:07 44.85975 20.21587 3176 ft 228 kts 304°
2026-05-01 14:08 44.87699 20.17698 4920 ft 238 kts 305°
2026-05-01 14:08 44.88583 20.15696 5688 ft 244 kts 305°
2026-05-01 14:08 44.89484 20.13652 5954 ft 245 kts 305°
2026-05-01 14:08 44.90381 20.11614 5982 ft 244 kts 305°
2026-05-01 14:09 44.91274 20.09585 5986 ft 243 kts 305°
2026-05-01 14:09 44.92145 20.07570 5990 ft 247 kts 301°
2026-05-01 14:09 44.92748 20.05126 6422 ft 268 kts 289°
2026-05-01 14:09 44.93276 20.02579 7312 ft 272 kts 289°
2026-05-01 14:10 44.93813 20.00027 8151 ft 277 kts 290°
2026-05-01 14:10 44.94370 19.97399 9011 ft 282 kts 290°
2026-05-01 14:10 44.94936 19.94724 9853 ft 287 kts 290°
2026-05-01 14:10 44.95509 19.92003 10623 ft 292 kts 291°
2026-05-01 14:11 44.96088 19.89239 11393 ft 296 kts 291°
2026-05-01 14:11 44.97267 19.83588 12882 ft 304 kts 291°
2026-05-01 14:11 44.97866 19.80701 13635 ft 308 kts 291°
2026-05-01 14:12 44.98472 19.77772 14341 ft 313 kts 291°
2026-05-01 14:12 44.99083 19.74802 14990 ft 317 kts 291°
2026-05-01 14:12 44.99704 19.71793 15634 ft 321 kts 292°
2026-05-01 14:12 45.00333 19.68745 16282 ft 325 kts 292°
2026-05-01 14:13 45.00971 19.65657 16921 ft 329 kts 292°
2026-05-01 14:13 45.01395 19.63591 17345 ft 332 kts 292°
2026-05-01 14:13 45.02259 19.59360 18192 ft 337 kts 292°
2026-05-01 14:13 45.02912 19.56155 18801 ft 341 kts 293°
2026-05-01 14:14 45.03570 19.52911 19350 ft 345 kts 293°
2026-05-01 14:14 45.04234 19.49636 19902 ft 349 kts 293°
2026-05-01 14:14 45.04907 19.46315 20427 ft 353 kts 294°
2026-05-01 14:14 45.05590 19.42965 20957 ft 356 kts 294°
2026-05-01 14:15 45.06279 19.39580 21486 ft 360 kts 294°
2026-05-01 14:15 45.06973 19.36167 21987 ft 363 kts 294°
2026-05-01 14:15 45.07672 19.32708 22493 ft 367 kts 294°
2026-05-01 14:15 45.08375 19.29221 23003 ft 370 kts 294°
2026-05-01 14:16 45.09085 19.25702 23502 ft 374 kts 294°
2026-05-01 14:16 45.09803 19.22147 23984 ft 377 kts 294°
2026-05-01 14:16 45.10523 19.18560 24398 ft 381 kts 294°
2026-05-01 14:16 45.11246 19.14939 24811 ft 384 kts 294°
2026-05-01 14:17 45.11973 19.11287 25218 ft 387 kts 295°
2026-05-01 14:17 45.12721 19.07616 25622 ft 387 kts 298°
2026-05-01 14:17 45.13668 19.04021 25806 ft 395 kts 300°
2026-05-01 14:17 45.14668 19.00337 25931 ft 406 kts 300°
2026-05-01 14:18 45.15696 18.96549 26062 ft 418 kts 300°
2026-05-01 14:18 45.16749 18.92656 26192 ft 429 kts 300°
2026-05-01 14:18 45.17823 18.88662 26310 ft 439 kts 299°
2026-05-01 14:18 45.18546 18.85961 26407 ft 445 kts 299°
2026-05-01 14:19 45.20008 18.80467 26727 ft 453 kts 299°
2026-05-01 14:19 45.21117 18.76273 27051 ft 456 kts 298°
2026-05-01 14:19 45.22233 18.72053 27410 ft 459 kts 299°
2026-05-01 14:19 45.23357 18.67806 27783 ft 462 kts 298°
2026-05-01 14:20 45.24487 18.63522 28156 ft 465 kts 299°
2026-05-01 14:20 45.26748 18.54926 28320 ft 463 kts 299°
2026-05-01 14:21 45.28990 18.46379 28319 ft 462 kts 299°
2026-05-01 14:21 45.31223 18.37839 28327 ft 460 kts 298°
2026-05-01 14:22 45.34563 18.25065 28327 ft 460 kts 298°
2026-05-01 14:22 45.36765 18.16579 28329 ft 460 kts 298°
2026-05-01 14:23 45.38981 18.07991 28296 ft 460 kts 298°
2026-05-01 14:23 45.41183 17.99453 28318 ft 459 kts 298°
2026-05-01 14:24 45.43376 17.90915 28319 ft 459 kts 298°
2026-05-01 14:24 45.45568 17.82365 28306 ft 459 kts 298°
2026-05-01 14:25 45.47731 17.73857 28297 ft 460 kts 297°
2026-05-01 14:25 45.49898 17.65295 28316 ft 459 kts 297°
2026-05-01 14:26 45.53151 17.52429 28322 ft 460 kts 297°
2026-05-01 14:27 45.55317 17.43833 28334 ft 460 kts 297°
2026-05-01 14:27 45.57469 17.35238 28319 ft 460 kts 297°
2026-05-01 14:28 45.60683 17.22334 28331 ft 459 kts 297°
2026-05-01 14:28 45.62806 17.13812 28344 ft 458 kts 297°
2026-05-01 14:29 45.64933 17.05229 28342 ft 458 kts 297°
2026-05-01 14:30 45.69154 16.88090 28341 ft 457 kts 296°
2026-05-01 14:31 45.72298 16.75220 28344 ft 456 kts 296°
2026-05-01 14:31 45.74381 16.66647 28319 ft 456 kts 296°
2026-05-01 14:32 45.76452 16.58069 28334 ft 455 kts 296°
2026-05-01 14:32 45.78521 16.49508 28342 ft 455 kts 296°
2026-05-01 14:33 45.80587 16.40934 28324 ft 456 kts 296°
2026-05-01 14:33 45.82656 16.32324 27888 ft 458 kts 296°
2026-05-01 14:33 45.83696 16.27989 26834 ft 463 kts 295°
2026-05-01 14:34 45.84739 16.23614 26050 ft 462 kts 295°
2026-05-01 14:34 45.85766 16.19267 25360 ft 459 kts 295°
2026-05-01 14:34 45.86782 16.14944 24700 ft 455 kts 295°
2026-05-01 14:34 45.87790 16.10654 24056 ft 452 kts 295°
2026-05-01 14:35 45.88795 16.06396 23338 ft 448 kts 295°
2026-05-01 14:35 45.89789 16.02186 22662 ft 443 kts 294°
2026-05-01 14:35 45.90772 15.98017 22025 ft 437 kts 294°
2026-05-01 14:35 45.91742 15.93904 21369 ft 432 kts 294°
2026-05-01 14:36 45.92698 15.89845 20786 ft 427 kts 294°
2026-05-01 14:36 45.93644 15.85818 20201 ft 423 kts 294°
2026-05-01 14:36 45.94578 15.81835 19628 ft 418 kts 294°
2026-05-01 14:36 45.95484 15.77950 19104 ft 414 kts 294°
2026-05-01 14:37 45.96393 15.74042 18578 ft 410 kts 294°
2026-05-01 14:37 45.97247 15.70151 17961 ft 409 kts 289°
2026-05-01 14:37 45.97793 15.66132 17342 ft 408 kts 285°
2026-05-01 14:37 45.98290 15.62130 16725 ft 405 kts 285°
2026-05-01 14:38 45.98778 15.58167 16121 ft 401 kts 285°
2026-05-01 14:38 45.99262 15.54227 15481 ft 400 kts 285°
2026-05-01 14:38 45.99740 15.50318 14915 ft 395 kts 285°
2026-05-01 14:38 46.00213 15.46439 14350 ft 392 kts 285°
2026-05-01 14:39 46.00683 15.42609 13802 ft 387 kts 285°
2026-05-01 14:39 46.01147 15.38819 13263 ft 381 kts 285°
2026-05-01 14:39 46.01601 15.35093 12752 ft 376 kts 284°
2026-05-01 14:39 46.02049 15.31409 12221 ft 372 kts 284°
2026-05-01 14:40 46.02496 15.27741 11439 ft 374 kts 284°
2026-05-01 14:40 46.02942 15.24065 10877 ft 371 kts 283°
2026-05-01 14:40 46.03378 15.20432 10490 ft 363 kts 283°
2026-05-01 14:40 46.03794 15.16926 10369 ft 348 kts 283°
2026-05-01 14:41 46.04193 15.13558 10235 ft 334 kts 284°
2026-05-01 14:41 46.04577 15.10315 10108 ft 324 kts 284°
2026-05-01 14:41 46.04951 15.07166 9974 ft 315 kts 284°
2026-05-01 14:41 46.05317 15.04108 9820 ft 306 kts 284°
2026-05-01 14:42 46.05677 15.01102 9518 ft 304 kts 284°
2026-05-01 14:42 46.06034 14.98108 9225 ft 302 kts 284°
2026-05-01 14:42 46.06387 14.95146 8915 ft 299 kts 284°
2026-05-01 14:42 46.06733 14.92207 8611 ft 297 kts 284°
2026-05-01 14:43 46.07076 14.89285 8328 ft 294 kts 284°
2026-05-01 14:43 46.07413 14.86388 8013 ft 293 kts 284°
2026-05-01 14:43 46.07748 14.83510 7597 ft 289 kts 283°
2026-05-01 14:43 46.08079 14.80667 6919 ft 290 kts 283°
2026-05-01 14:44 46.08303 14.78763 6398 ft 292 kts 283°
2026-05-01 14:44 46.09274 14.73056 4855 ft 300 kts 287°
2026-05-01 14:44 46.09915 14.70221 4541 ft 291 kts 300°
2026-05-01 14:45 46.10976 14.67913 4383 ft 264 kts 309°
2026-05-01 14:45 46.13028 14.63945 3980 ft 235 kts 309°
2026-05-01 14:45 46.14288 14.61500 3579 ft 225 kts 310°
2026-05-01 14:46 46.14910 14.60292 3389 ft 218 kts 309°
2026-05-01 14:46 46.16568 14.57066 2853 ft 182 kts 309°
2026-05-01 14:46 46.17279 14.55681 2598 ft 167 kts 311°
2026-05-01 14:47 46.17953 14.54368 2408 ft 155 kts 311°
2026-05-01 14:47 46.18572 14.53163 2196 ft 150 kts 312°
2026-05-01 14:47 46.19195 14.51954 1979 ft 149 kts 308°
2026-05-01 14:48 46.20438 14.49533 1568 ft 150 kts 306°
2026-05-01 14:48 46.21043 14.48342 1373 ft 145 kts 306°
2026-05-01 14:48 46.22178 14.46132 1248 ft 107 kts 307°
2026-05-01 14:49 46.22646 14.45378 1260 ft 21 kts 333°
2026-05-01 14:49 46.22812 14.45315 1264 ft 12 kts 354°
2026-05-01 14:50 46.22938 14.45407 1258 ft 12 kts 14°
2026-05-01 14:50 46.23047 14.45368 1261 ft 3 kts 36°
2026-05-01 14:51 46.23051 14.45372 1260 ft 0 kts 36°